www.pogodaiklimat.ru

Погода и климат >> Архив погоды >> Китай >> Lu Shan


ПОГОДА в Lu Shan

  • Прогноз погоды в Lu Shan
  • Монитор погоды в Lu Shan
  • Климат города

АРХИВ ПОГОДЫ в Lu Shan

Время (UTC), дата Ветер
(напр.,м/с)
 
Видим.   Явления Облачность Т
(С)
Тd
(С)
f
(%)
Тe
(С)
Тes
(С)
Комфортность P
(гПа)
Po
(гПа)
Тmin
(С)
Tmax
(С)
R
(мм)
R24
(мм)
S
(см)
03 20.04 Ю 9 17 км 9/9
[]
+18.3 +12.5 69 +18 +18 1013.9 1014.0
06 20.04 Ю 7 12 км 9/9
[]
+16.9 +15.4 91 +16 +16 1013.0 1013.0 +15.3
09 20.04 Ю 6 8000 м 10/10 300 м
[]
+15.6 +15.6 100 +14 +14 1012.9 1013.0
12 20.04 Ю 8 8000 м 10/10 300 м
[]
+15.8 +15.8 100 +14 +14 1013.3 1013.0
18 20.04 Ю 10
{19}
15 км ?/? +15.7 +15.2 97 +13 +13 1011.3 1011.0 +20.3
21 20.04 Ю 9
{19}
17 км ?/? +15.0 +14.7 98 +13 +13 1010.3 1010.0
00 21.04 Ю 8
{19}
4000 м слабый ливневой дождь ?/? +14.7 +14.7 100 +12 +12 1011.8 1010.7 4
03 21.04 Ю 9
{19}
100 м туман {ливн. осадки} ?/? +15.0 +15.0 100 +13 +13 1011.2 1011.0
06 21.04 Ю 9
{19}
12 км {ливн. осадки, туман} 9/9 100 м
[]
+16.6 +16.6 100 +15 +15 1009.4 1009.0 +14.3 6
09 21.04 Ю 7
{19}
6000 м дымка 9/9
[]
+16.0 +16.0 100 +14 +14 1009.3 1009.0
12 21.04 Ю 7
{18}
400 м туман ?/? +16.3 +16.3 100 +15 +15 1010.5 1011.0
18 21.04 Ю 6 8000 м ?/? +16.7 +16.7 100 +16 +16 1009.8 881.3 +17.6
21 21.04 Ю 6 14 км ?/? +17.0 +17.0 100 +16 +16 1009.7 1010.0
00 22.04 Ю 4 14 км 10/10 100 м
[]
+17.2 +17.2 100 +17 +17 1011.2 1011.0
03 22.04 Ю 5 8000 м слабый ливневой дождь 10/10 100 м
[]
+17.1 +17.1 100 +16 +16 1011.3 1011.0
06 22.04 Ю 1 6000 м слабый ливневой дождь ?/? +19.0 +19.0 100 +22 +22 комфорт 1009.2 1009.3 +16.0 3
09 22.04 Ю 4 20 км {ливн. осадки} 9/9 300 м
[]
+17.0 +16.7 98 +16 +17 1008.0 1008.0
12 22.04 Ю 6 700 м туман {ливн. осадки} ?/? +16.1 +16.1 100 +15 +15 1009.2 1009.0 2
18 22.04 Ю 8 2500 м в посл. час туман ?/? +16.4 +16.4 100 +15 +15 1006.8 1007.0 +19.2 11
21 22.04 Ю 4 7000 м ?/? +16.3 +16.3 100 +16 +16 1005.3 1005.0
00 23.04 В 2 600 м слабый ливневой дождь ?/? +15.0 +15.0 100 +15 +15 1007.4 1007.0 32
03 23.04 С 9 800 м слабый ливневой дождь {туман} ?/? +10.9 +10.9 100 +7 +7 1009.8 1010.0
06 23.04 С 6 600 м слабый ливневой дождь {туман} ?/? +10.8 +10.8 100 +7 +7 1010.1 1010.5 +10.3 15
09 23.04 С 4 200 м слабый ливневой дождь {туман} ?/? +10.0 +10.0 100 +7 +7 1010.8 1011.0
12 23.04 С 4 300 м слабый ливневой дождь {туман} ?/? +9.8 +9.8 100 +7 +7 1013.6 1014.0 2
18 23.04 С 9 300 м туман ?/? +8.9 +8.9 100 +4 +4 1016.4 884.2 +16.6 2
21 23.04 СВ 9 200 м туман ?/? +8.4 +8.4 100 +3 +3 1016.9 1017.0
00 24.04 С 9 200 м туман ?/? +8.9 +8.9 100 +4 +4 1018.8 1019.0 0.2
03 24.04 С 6 100 м туман ?/? +10.0 +10.0 100 +6 +6 1019.6 1020.0
06 24.04 С 4 100 м туман ?/? +11.8 +11.8 100 +9 +9 1018.3 1041.0 +8.1
09 24.04 С 5 3200 м дымка {туман} ?/? +11.6 +11.6 100 +9 +9 1017.9 1018.0
12 24.04 СВ 4 100 м туман ?/? +9.9 +9.9 100 +7 +7 1019.8 887.0
18 24.04 В 9 7000 м дымка ?/? +7.8 +7.8 100 +2 +2 1018.1 1018.0 +12.3
21 24.04 СВ 7 6000 м дымка ?/? +8.5 +8.5 100 +4 +4 1018.1 1018.0
00 25.04 СВ 3 13 км 9/9 100 м
[]
+10.4 +8.2 86 +8 +9 1019.6 1020.0
03 25.04 С 3 12 км 6/6 100 м
[]
+16.4 +12.8 79 +16 +22 1018.7 1019.0
06 25.04 С 3 12 км 8/8 100 м
[]
+17.5 +11.5 68 +18 +20 1016.7 1039.8 +7.7
09 25.04 С 2 12 км 8/8 100 м
[]
+13.3 +10.8 85 +13 +13 1016.6 1017.0
12 25.04 СВ 3 20 км 9/9
[]
+11.2 +8.2 82 +9 +9 1017.4 885.5
18 25.04 С 2 21 км ?/? +11.6 +8.3 80 +11 +11 1014.4 1014.0 +17.9
21 25.04 СЗ 2 19 км ?/? +12.5 +10.4 87 +12 +12 1015.0 1015.0
00 26.04 СЗ 1 19 км 9/9 300 м
[]
+12.9 +9.2 78 +13 +14 1017.3 1017.0
06 26.04 З 1 13 км {дождь} 10/10 200 м
[]
+14.1 +10.9 81 +14 +14 1016.4 1016.0 +10.9
09 26.04 ЮЗ 1 12 км 10/10 100 м
[]
+12.7 +11.6 93 +13 +13 1016.1 1016.0
12 26.04 Ю 1 н/о слабый дождь ?/? +11.8 +11.8 100 +11 +11 1017.7 1018.0 0.0
18 26.04 З 1 2400 м дымка ?/? +11.8 +11.8 100 +11 +11 1017.9 1018.0 +14.7
21 26.04 С 1 12 км в посл. час туман ?/? +11.6 +11.6 100 +11 +11 1018.7 1019.0

 

Местоположение метеостанции Lu Shan (Китай): широта 29.58 долгота 115.98 высота над уровнем моря 1165 м.

В архиве по умолчанию представлена погода в Lu Shan за последнюю неделю. Архивные данные за месяц целиком и за предыдущие месяцы, начиная с января 2011 года, Вы можете получить, выбрав интересующий диапазон дат из раскрывающегося списка и нажав кнопку "Ввод!".


*Определитесь, кто Вы:
робот инопланетянин человек

Внимание! Время в таблицах - всемирное. Для получения местного времени необходимо прибавить поправку, которая в Lu Shan равна 8 ч.

Смотрите также архив погоды в соседних городах и на ближайших метеорологических станциях:

Погода в Nanchang (Китай) (109 км)
Погода в Jingdezhen (Китай) (122 км)
Погода в Anqing (Китай) (148 км)
Погода в Xiushui (Китай) (149 км)
Погода в Macheng (Китай) (203 км)
Погода в Huoshan (Китай) (205 км)
Погода в Wuhan (Китай) (212 км)
Погода в Huang Shan (Китай) (218 км)
Погода в Nancheng (Китай) (232 км)
Погода в Yichun (Китай) (252 км)

Пояснения к столбцам:

Ветер - указаны скорость ветра в м/с - средняя за 10 мин, порывы в срок и между сроками (в фигурных скобках) и направление, откуда дует ветер: С - северный, СВ - северо-восточный, В - восточный, ЮВ - юго-восточный, Ю - южный, ЮЗ - юго-западный, З - западный, СЗ - северо-западный.
Видимость - горизонтальная дальность видимости в метрах или километрах. При видимости от 1 до 10 км при отсутствии осадков обычно наблюдается дымка, при ухудшении видимости до 1 км и менее - туман. В сухую погоду видимость может ухудшаться дымом, пылью или мглою.
Явления - указаны атмосферные явления, наблюдавшиеся в срок или в последний час перед сроком; фигурными скобками обозначены явления, наблюдавшиеся между сроками (за 1-3 часа до срока); квадратными скобками обозначены град или гололедные отложения с указанием их диаметра в мм.
Облачность - указаны через наклонную черту общая и нижняя облачность в баллах и высота нижней границы облаков в метрах; квадратными скобками обозначены формы облаков: Ci - перистые, Cs - перисто-слоистые, Cc - перисто-кучевые, Ac - высококучевые, As - высокослоистые, Sc - слоисто-кучевые, Ns - слоисто-дождевые, Cu - кучевые, Cb - кучево-дождевые. Подробнее классификацию облаков см. в Атласе облаков (PDF).
T - Температура воздуха - температура, измеренная на высоте 2 м над землей.
Td - Температура точки росы - температура, при понижении до которой содержащийся в воздухе водяной пар достигнет насыщения.
f - Относительная влажность воздуха - влажноcть воздуха, измеренная на высоте 2 м над землей.
Te - Эффективная температура - температура, которую ощущает одетый по сезону человек в тени. Характеристика душности погоды. При расчете учитывается влияние влажности воздуха и скорости ветра на теплоощущения человека.
Tes - Эффективная температура на солнце - температура, которую ощущает человек, с поправкой на солнечный нагрев. Характеристика знойности погоды. Зависит от высоты солнца над горизонтом, облачности и скорости ветра. Ночью, в пасмурную погоду, а также при ветре 12 м/с и более поправка равна нулю.
P - Атмосферное давление - приведенное к уровню моря атмосферное давление.
Po - Атмосферное давление - измеренное на уровне метеостанции атмосферное давление.
Tmin - Минимальная температура - минимум температуры воздуха на высоте 2 м над землей.
Tmax - Максимальная температура - максимум температуры воздуха на высоте 2 м над землей.
R - Количество осадков - Количество выпавших осадков за период времени, мм. При наведении курсора мыши на число - период времени, за который выпало указанное количество осадков.
R24 - Количество осадков - Количество выпавших осадков за 24 часа, мм.
S - Снежный покров - Высота снежного покрова, см. При наведении курсора мыши на число - состояние снежного покрова и степень покрытия местности в баллах.